Location: Betz
(49.1556°N, 2.9558°E)
Time: 13:51:34
(UTC+00:00)

Cosmos 1766 - Pass Details

Date: 18 September 2019
Orbit: 521 x 546 km, 82.5° (Epoch: 19 October)

Event Time Altitude Azimuth Distance (km) Brightness Sun altitude
Exits shadow 20:35:20 57° 331° (NNW) 641 3.8 -25.2°
Drops below altitude 10° 20:38:41 10° 5° (N) 1,796 6.3 -25.6°
Sets 20:40:51 0° 8° (N) 2,688 7.2 -25.9°
